User: anonymous   Login
Location: Caltech
(34.1382°N, 118.1253°W)
Time: 11:53:29
(UTC-07:00)
Language:

Cosmos 2237 Rocket - Orbit

View from above orbital plane
View from above orbital plane
View from above satellite
View from above satellite

Ground track
Ground track

The orbit data is extracted from the following two-line orbital elements,

1 22566U 93016B   16270.44252320  .00000385  00000-0  22350-3 0  9999
2 22566  71.0058 260.5344 0010392 186.9532 173.1448 14.14935720213962
Epoch (UTC): 26 September 2016 10:37:14
Eccentricity: 0.0010392
inclination: 71.0058°
perigee height: 835 km
apogee height: 850 km
right ascension of ascending node: 260.5344°
argument of perigee: 186.9532°
revolutions per day: 14.14935720
mean anomaly at epoch: 173.1448°
orbit number at epoch: 21396

The dashed part of the orbit path shows where the satellite is in the earth's shadow,  

DLR